TimeEDT,TemperatureF,Dew PointF,Humidity,Sea Level PressureIn,VisibilityMPH,Wind Direction,Wind SpeedMPH,Gust SpeedMPH,PrecipitationIn,Events,Conditions,WindDirDegrees,DateUTC
12:15 AM,58.6,57.6,96,30.03,7.0,Calm,Calm,-,N/A,,Overcast,0,2013-05-11 04:15:00
12:35 AM,58.3,57.4,97,30.03,4.0,Calm,Calm,-,N/A,,Overcast,0,2013-05-11 04:35:00
12:55 AM,57.7,57.2,98,30.03,3.0,Calm,Calm,-,N/A,,Overcast,0,2013-05-11 04:55:00
1:15 AM,57.6,56.8,97,30.03,3.0,Calm,Calm,-,N/A,,Overcast,0,2013-05-11 05:15:00
1:35 AM,57.4,56.7,97,30.02,3.0,Calm,Calm,-,N/A,,Overcast,0,2013-05-11 05:35:00
1:55 AM,57.2,56.3,97,30.02,2.5,Calm,Calm,-,N/A,,Overcast,0,2013-05-11 05:55:00
2:15 AM,56.7,55.8,97,30.01,2.0,Calm,Calm,-,0.01,,Overcast,0,2013-05-11 06:15:00
2:35 AM,56.3,55.4,97,30.01,0.8,Calm,Calm,-,0.01,,Overcast,0,2013-05-11 06:35:00
2:55 AM,56.7,55.8,97,29.99,2.0,Calm,Calm,-,0.01,,Overcast,0,2013-05-11 06:55:00
3:15 AM,56.5,55.6,97,30.00,2.5,Calm,Calm,-,N/A,,Overcast,0,2013-05-11 07:15:00
3:35 AM,56.5,55.6,97,30.00,2.5,Calm,Calm,-,N/A,,Overcast,0,2013-05-11 07:35:00
3:55 AM,56.5,55.4,96,29.99,2.5,Calm,Calm,-,N/A,,Overcast,0,2013-05-11 07:55:00
4:15 AM,56.5,55.4,96,29.99,1.8,Calm,Calm,-,N/A,,Overcast,0,2013-05-11 08:15:00
4:35 AM,56.3,55.4,97,29.99,3.0,Calm,Calm,-,N/A,,Overcast,0,2013-05-11 08:35:00
4:55 AM,56.3,55.4,97,29.98,3.0,Calm,Calm,-,N/A,,Overcast,0,2013-05-11 08:55:00
5:15 AM,56.3,55.4,97,29.98,3.0,Calm,Calm,-,N/A,,Overcast,0,2013-05-11 09:15:00
5:35 AM,55.9,54.9,96,29.98,3.0,Calm,Calm,-,N/A,,Overcast,0,2013-05-11 09:35:00
5:55 AM,56.3,55.0,96,29.98,4.0,Calm,Calm,-,N/A,,Overcast,0,2013-05-11 09:55:00
6:15 AM,56.1,54.9,96,29.97,4.0,Calm,Calm,-,N/A,,Overcast,0,2013-05-11 10:15:00
6:35 AM,55.9,54.9,96,29.97,4.0,Calm,Calm,-,N/A,,Overcast,0,2013-05-11 10:35:00
6:55 AM,55.8,54.7,96,29.97,4.0,Calm,Calm,-,N/A,,Overcast,0,2013-05-11 10:55:00
7:15 AM,55.8,54.7,96,29.98,4.0,Calm,Calm,-,N/A,,Overcast,0,2013-05-11 11:15:00
7:35 AM,55.9,55.0,97,29.98,4.0,Calm,Calm,-,N/A,,Overcast,0,2013-05-11 11:35:00
7:55 AM,56.1,55.2,97,29.98,5.0,Calm,Calm,-,N/A,,Overcast,0,2013-05-11 11:55:00
8:15 AM,56.7,55.8,97,29.99,5.0,Calm,Calm,-,N/A,,Overcast,0,2013-05-11 12:15:00
8:35 AM,57.0,56.3,97,29.98,5.0,Calm,Calm,-,N/A,,Overcast,0,2013-05-11 12:35:00
8:55 AM,57.2,56.7,98,29.98,7.0,Calm,Calm,-,N/A,,Overcast,0,2013-05-11 12:55:00
9:15 AM,57.7,57.4,99,29.99,7.0,Calm,Calm,-,N/A,,Overcast,0,2013-05-11 13:15:00
9:35 AM,58.8,58.5,99,29.99,10.0,Calm,Calm,-,N/A,,Overcast,0,2013-05-11 13:35:00
9:55 AM,59.9,59.2,97,29.99,7.0,Calm,Calm,-,N/A,,Overcast,0,2013-05-11 13:55:00
10:15 AM,61.7,60.1,94,29.98,10.0,NE,3.5,-,N/A,,Overcast,50,2013-05-11 14:15:00
10:35 AM,62.6,60.3,92,29.97,10.0,Calm,Calm,-,N/A,,Overcast,0,2013-05-11 14:35:00
10:55 AM,63.7,57.9,81,29.98,10.0,East,3.5,-,N/A,,Mostly Cloudy,90,2013-05-11 14:55:00
11:15 AM,63.5,57.0,79,29.98,10.0,Calm,Calm,-,N/A,,Overcast,0,2013-05-11 15:15:00
11:35 AM,64.9,57.6,77,29.98,10.0,Calm,Calm,-,N/A,,Overcast,0,2013-05-11 15:35:00
11:55 AM,65.7,56.7,73,29.98,10.0,Calm,Calm,-,N/A,,Overcast,0,2013-05-11 15:55:00
12:15 PM,66.2,56.7,71,29.98,10.0,Calm,Calm,-,N/A,,Mostly Cloudy,0,2013-05-11 16:15:00
12:35 PM,68.2,56.7,67,29.97,10.0,Calm,Calm,-,N/A,,Mostly Cloudy,0,2013-05-11 16:35:00
12:55 PM,67.8,57.0,68,29.96,10.0,Calm,Calm,-,N/A,,Mostly Cloudy,0,2013-05-11 16:55:00
1:15 PM,69.3,56.3,63,29.96,10.0,NE,3.5,-,N/A,,Mostly Cloudy,40,2013-05-11 17:15:00
1:35 PM,69.3,57.2,65,29.94,10.0,NE,5.8,-,N/A,,Overcast,40,2013-05-11 17:35:00
1:55 PM,69.8,56.8,63,29.94,10.0,NNE,3.5,-,N/A,,Mostly Cloudy,20,2013-05-11 17:55:00
2:15 PM,69.1,56.8,65,29.93,10.0,SE,3.5,-,N/A,,Overcast,140,2013-05-11 18:15:00
2:35 PM,69.3,55.6,62,29.94,10.0,Calm,Calm,-,N/A,,Mostly Cloudy,0,2013-05-11 18:35:00
2:55 PM,71.1,54.0,55,29.93,10.0,WSW,3.5,-,N/A,,Scattered Clouds,240,2013-05-11 18:55:00
3:15 PM,71.1,54.1,55,29.92,10.0,SW,4.6,-,N/A,,Clear,230,2013-05-11 19:15:00
3:35 PM,72.7,53.4,51,29.91,10.0,WSW,6.9,-,N/A,,Scattered Clouds,250,2013-05-11 19:35:00
3:55 PM,72.0,52.0,49,29.91,10.0,SW,9.2,-,N/A,,Scattered Clouds,220,2013-05-11 19:55:00
4:15 PM,70.2,51.6,52,29.91,10.0,WSW,8.1,-,N/A,,Overcast,240,2013-05-11 20:15:00
4:35 PM,68.9,53.1,57,29.92,10.0,NW,10.4,25.3,N/A,,Overcast,320,2013-05-11 20:35:00
4:55 PM,61.0,52.2,73,29.94,10.0,NW,8.1,26.5,0.01,Rain,Rain,320,2013-05-11 20:55:00
5:15 PM,58.8,54.9,87,29.94,4.0,Calm,Calm,-,0.10,Rain,Heavy Rain,0,2013-05-11 21:15:00
5:35 PM,58.5,55.8,91,29.95,3.0,Calm,Calm,-,0.15,Rain,Rain,0,2013-05-11 21:35:00
5:55 PM,58.5,57.0,95,29.95,3.0,SSE,4.6,-,0.19,Rain,Rain,160,2013-05-11 21:55:00
6:15 PM,58.1,57.2,97,29.96,4.0,SSE,3.5,-,0.03,Rain,Rain,150,2013-05-11 22:15:00
6:35 PM,57.7,56.8,97,29.94,5.0,Calm,Calm,-,0.07,Rain,Light Rain,0,2013-05-11 22:35:00
6:55 PM,58.1,57.2,97,29.94,10.0,ENE,4.6,-,0.09,Rain,Light Rain,70,2013-05-11 22:55:00
7:15 PM,58.3,57.7,98,29.94,10.0,Calm,Calm,-,N/A,,Mostly Cloudy,0,2013-05-11 23:15:00
7:35 PM,58.3,57.4,97,29.94,10.0,Calm,Calm,-,N/A,,Mostly Cloudy,0,2013-05-11 23:35:00
7:55 PM,58.3,57.4,97,29.95,7.0,Calm,Calm,-,0.01,Rain,Heavy Rain,0,2013-05-11 23:55:00
8:15 PM,57.7,57.2,98,29.95,7.0,Calm,Calm,-,0.02,Rain,Rain,0,2013-05-12 00:15:00
8:35 PM,57.6,57.0,98,29.94,5.0,Calm,Calm,-,0.04,Rain,Rain,0,2013-05-12 00:35:00
8:55 PM,57.2,56.5,97,29.94,10.0,Calm,Calm,-,0.05,,Mostly Cloudy,0,2013-05-12 00:55:00
9:15 PM,57.0,56.3,97,29.94,7.0,Calm,Calm,-,0.01,,Mostly Cloudy,0,2013-05-12 01:15:00
9:35 PM,56.8,56.3,98,29.94,7.0,Calm,Calm,-,0.01,,Mostly Cloudy,0,2013-05-12 01:35:00
9:55 PM,56.3,55.6,97,29.94,5.0,Calm,Calm,-,0.02,,Overcast,0,2013-05-12 01:55:00
10:15 PM,55.8,54.9,97,29.95,5.0,Calm,Calm,-,N/A,,Mostly Cloudy,0,2013-05-12 02:15:00
10:35 PM,55.4,54.5,97,29.96,5.0,Calm,Calm,-,0.01,,Mostly Cloudy,0,2013-05-12 02:35:00
10:55 PM,56.5,55.6,97,29.97,10.0,NW,9.2,17.3,0.01,,Overcast,310,2013-05-12 02:55:00
11:15 PM,57.2,52.3,84,29.97,10.0,NNW,9.2,-,N/A,,Overcast,330,2013-05-12 03:15:00
11:35 PM,57.2,51.1,80,29.98,10.0,North,3.5,-,N/A,,Overcast,360,2013-05-12 03:35:00
11:55 PM,55.6,50.5,83,29.98,10.0,NNW,5.8,-,N/A,,Scattered Clouds,340,2013-05-12 03:55:00